Weather History for Winston-Salem, NC

Change the Weather History Date:

Monday, June 10, 2013

  Actual Average Record
Temperature  
Mean Temperature 76 °F -  
Max Temperature 82 °F 80 °F 96 °F (1993)
Min Temperature 70 °F 63 °F 44 °F (1977)
Cooling Degree Days 10    
Growing Degree Days 26 (Base 50)    
Moisture  
Dew Point 68 °F    
Average Humidity 85    
Maximum Humidity 94    
Minimum Humidity 60    
Precipitation  
Precipitation 0.12 in - - ()
Sea Level Pressure  
Sea Level Pressure 29.99 in    
Wind  
Wind Speed 6 mph (SSW)    
Max Wind Speed 14 mph    
Max Gust Speed 25 mph    
Visibility 10 miles    
Events Rain , Thunderstorm    
Averages and records for this station are not official NWS values.
T = Trace of Precipitation, MM = Missing Value Source: NWS Daily Summary

Daily Weather History Graph

Daily Weather History Graph

Search for Another Location

Airport:

Trip Planner

Search our weather history database for the weather conditions in past years. The results will help you decide how hot, cold, wet, or windy it might be!

Date:

Astronomy

Jun. 10, 2013 Rise Set
Actual Time 6:03 AM EDT 8:37 PM EDT
Civil Twilight 5:33 AM EDT 9:07 PM EDT
Nautical Twilight 4:55 AM EDT 9:45 PM EDT
Astronomical Twilight 4:14 AM EDT 10:27 PM EDT
Moon 7:48 AM EDT (6/10) 10:06 PM EDT (6/10)
Length of Visible Light 15h 34m
Length of Day
14h 34m
Waxing Crescent, 4% of the Moon is Illuminated
Jun 10
Waxing Crescent
Jun 16
First Quarter
Jun 23
Full
Jun 30
Last Quarter
Jul 8
New

Hourly Weather History & Observations

Time (EDT) Temp. Heat Index Dew Point Humidity Pressure Visibility Wind Dir Wind Speed Gust Speed Precip Events Conditions
12:30 AM 71.6 °F - 66.2 °F 83% 30.13 in 10.0 mi South 3.5 mph - N/A   Mostly Cloudy
12:54 AM 70.0 °F - 68.0 °F 93% 30.08 in 10.0 mi SE 3.5 mph - N/A   Mostly Cloudy
1:32 AM 71.6 °F - 68.0 °F 88% 30.09 in 10.0 mi Calm Calm - N/A   Overcast
1:54 AM 71.1 °F - 68.0 °F 90% 30.05 in 10.0 mi SSE 3.5 mph - N/A   Overcast
2:28 AM 71.6 °F - 68.0 °F 88% 30.08 in 10.0 mi South 4.6 mph - N/A   Overcast
2:54 AM 72.0 °F - 69.1 °F 91% 30.03 in 9.0 mi South 5.8 mph - N/A   Overcast
3:54 AM 72.0 °F - 70.0 °F 93% 30.02 in 9.0 mi South 6.9 mph - 0.00 in   Overcast
4:09 AM 71.6 °F - 69.8 °F 94% 30.06 in 10.0 mi South 8.1 mph - N/A   Overcast
4:17 AM 71.6 °F - 69.8 °F 94% 30.06 in 10.0 mi South 6.9 mph - N/A   Mostly Cloudy
4:25 AM 71.6 °F - 69.8 °F 94% 30.06 in 10.0 mi Variable 6.9 mph - N/A   Overcast
4:32 AM 71.6 °F - 69.8 °F 94% 30.05 in 10.0 mi South 8.1 mph - N/A   Overcast
4:39 AM 71.6 °F - 69.8 °F 94% 30.05 in 10.0 mi South 8.1 mph - N/A   Overcast
4:54 AM 72.0 °F - 69.1 °F 91% 30.01 in 7.0 mi South 6.9 mph - 0.01 in Rain Light Rain
5:54 AM 72.0 °F - 69.1 °F 91% 30.01 in 10.0 mi South 4.6 mph - 0.00 in   Overcast
6:06 AM 73.4 °F - 69.8 °F 88% 30.05 in 10.0 mi South 6.9 mph - N/A   Overcast
6:54 AM 73.0 °F - 70.0 °F 90% 30.01 in 9.0 mi South 9.2 mph - 0.01 in   Overcast
7:07 AM 71.6 °F - 69.8 °F 94% 30.04 in 9.0 mi South 6.9 mph - 0.00 in Rain Light Rain
7:25 AM 73.4 °F - 69.8 °F 88% 30.04 in 10.0 mi South 5.8 mph - 0.00 in   Overcast
7:54 AM 73.0 °F - 70.0 °F 90% 30.00 in 10.0 mi South 8.1 mph - 0.00 in Rain Light Rain
8:54 AM 73.9 °F - 70.0 °F 87% 30.01 in 10.0 mi South 6.9 mph - 0.00 in   Overcast
9:30 AM 73.4 °F - 69.8 °F 88% 30.04 in 10.0 mi SSW 6.9 mph - 0.01 in   Overcast
9:40 AM 73.4 °F - 69.8 °F 88% 30.04 in 10.0 mi Variable 6.9 mph - 0.01 in   Overcast
9:54 AM 73.0 °F - 69.1 °F 87% 30.01 in 10.0 mi South 9.2 mph - 0.01 in   Mostly Cloudy
10:31 AM 73.4 °F - 69.8 °F 88% 30.03 in 10.0 mi SW 8.1 mph 19.6 mph N/A   Overcast
10:54 AM 75.0 °F - 70.0 °F 84% 30.00 in 10.0 mi SSW 6.9 mph 20.7 mph N/A   Mostly Cloudy
11:54 AM 77.0 °F - 69.1 °F 76% 29.98 in 10.0 mi SSW 10.4 mph 18.4 mph N/A   Overcast
12:54 PM 79.0 °F - 69.1 °F 72% 29.96 in 10.0 mi SW 13.8 mph 20.7 mph N/A   Mostly Cloudy
1:28 PM 80.6 °F 83.9 °F 69.8 °F 70% 29.97 in 10.0 mi SW 8.1 mph 23.0 mph N/A   Mostly Cloudy
1:54 PM 81.0 °F 83.8 °F 68.0 °F 65% 29.93 in 10.0 mi SSW 12.7 mph 25.3 mph N/A   Mostly Cloudy
2:54 PM 81.0 °F 83.0 °F 66.0 °F 60% 29.90 in 10.0 mi SW 9.2 mph 21.9 mph N/A   Scattered Clouds
3:46 PM 75.2 °F - 69.8 °F 83% 29.95 in 6.0 mi SW 10.4 mph - 0.04 in Rain , Thunderstorm Light Rain
3:54 PM 73.9 °F - 69.1 °F 85% 29.91 in 4.0 mi SW 8.1 mph 17.3 mph 0.05 in Rain , Thunderstorm Light Rain
4:35 PM 71.6 °F - 66.2 °F 83% 29.92 in 10.0 mi South 10.4 mph 19.6 mph 0.04 in Rain Light Rain
4:54 PM 73.0 °F - 68.0 °F 84% 29.89 in 10.0 mi SSW 9.2 mph - 0.04 in   Partly Cloudy
5:35 PM 73.4 °F - 68.0 °F 83% 29.91 in 10.0 mi Variable 6.9 mph 17.3 mph N/A   Mostly Cloudy
5:54 PM 73.9 °F - 66.9 °F 79% 29.88 in 10.0 mi SSW 8.1 mph 18.4 mph N/A   Overcast
6:54 PM 73.9 °F - 66.0 °F 76% 29.88 in 10.0 mi Variable 6.9 mph - N/A   Mostly Cloudy
7:54 PM 75.0 °F - 66.0 °F 73% 29.90 in 10.0 mi SSW 4.6 mph - N/A   Partly Cloudy
8:54 PM 73.0 °F - 66.0 °F 79% 29.90 in 10.0 mi South 6.9 mph - N/A   Clear
9:54 PM 72.0 °F - 64.9 °F 78% 29.93 in 10.0 mi South 6.9 mph - N/A   Clear
10:54 PM 71.1 °F - 64.9 °F 81% 29.95 in 10.0 mi SSW 6.9 mph - N/A   Clear
11:54 PM 70.0 °F - 64.9 °F 84% 29.94 in 10.0 mi Variable 4.6 mph - N/A   Clear